Flag for Germany Weather past 2 weeks in Schwäbisch Gmünd, Baden-Württemberg, Germany

Now
81 °F

Passing clouds.


Feels Like: 81 °F
Forecast: 62 / 89 °F
Wind: 2 mph from Southeast

Location: Stoetten

Current Time: Aug 29, 2015 at 3:34:19 PM

Latest Report: Aug 29, 2015 at 3:00 PM


Visibility: 47 mi

Pressure: 30.10 "Hg

Humidity: 47%

Dew point: 59 °F

Location of Schwäbisch GmündLocation

Historic Weather in Schwäbisch Gmünd — Graph

°F

Schwäbisch Gmünd temperature yesterday

Maximum temperature yesterday: 76 °F (at 6:00 PM)
Minimum temperature yesterday: 63 °F (at 5:00 AM)
Average temperature yesterday: 69 °F

Past Weeks' High & Low Weather Summary

 TemperatureHumidityPressure
High81 °F (Aug 27, 2:00 PM)100% (Aug 15, 11:00 PM)30.28 "Hg (Aug 15, 11:00 PM)
Low48 °F (Aug 18, 7:00 AM)33% (Aug 27, 3:00 PM)29.67 "Hg (Aug 24, 3:00 PM)
Average61 °F76%29.99 "Hg
* Reported Aug 14 2:00 PM — Aug 29 2:00 PM, Schwäbisch Gmünd, Weather by CustomWeather, © 2015

Note: Actual official high and low records may vary slightly from our data, if they occured in-between our weather recording intervals... More about our weather records

Advertising

Schwäbisch Gmünd weather history for previous 24 hours

 ConditionsComfort  
Time TempWeatherWind HumidityBarometerVisibility
2:00 PM
Sat, Aug 29
80 °FPassing clouds.2 mph49%30.12 "Hg47 mi
1:00 PM78 °FPassing clouds.3 mph60%30.14 "Hg47 mi
12:00 PM74 °FPassing clouds.3 mph63%30.17 "Hg43 mi
11:00 AM72 °FPassing clouds.5 mph71%30.18 "Hg43 mi
10:00 AM68 °FPassing clouds.6 mph80%30.19 "Hg37 mi
9:00 AM65 °FPassing clouds.6 mph87%30.19 "Hg31 mi
7:00 AM61 °FPassing clouds.5 mph98%30.19 "Hg31 mi
6:00 AM61 °FPassing clouds.5 mph96%30.19 "Hg31 mi
5:00 AM61 °FClear.3 mph99%30.19 "Hg4 mi
4:00 AM62 °FFog.2 mph98%30.19 "Hg4 mi
3:00 AM62 °FClear.2 mph97%30.19 "Hg5 mi
2:00 AM62 °FClear.2 mph98%30.19 "Hg7 mi
1:00 AM62 °FFog.N/A99%30.19 "Hg3 mi
11:00 PM
Fri, Aug 28
64 °FPassing clouds.N/A87%30.16 "Hg34 mi
10:00 PM66 °FOvercast.N/A83%30.14 "Hg14 mi
9:00 PM66 °FPassing clouds.N/A83%30.13 "Hg47 mi
8:00 PM69 °FPassing clouds.N/A75%30.09 "Hg47 mi
7:00 PM72 °FPassing clouds.5 mph68%30.07 "Hg43 mi
6:00 PM76 °FPassing clouds.3 mph63%30.04 "Hg43 mi
5:00 PM74 °FPartly sunny.3 mph61%30.05 "Hg25 mi
4:00 PM74 °FPartly sunny.N/A63%30.05 "Hg47 mi
3:00 PM73 °FPartly sunny.N/A62%30.05 "Hg47 mi
Weather by CustomWeather, © 2015

See weather overviewHow to use our weather pages